Weather History for Tupelo, MS

Change the Weather History Date:

Saturday, February 16, 2013

  Actual Average Record
Temperature  
Mean Temperature 35 °F 46 °F  
Max Temperature 45 °F 57 °F 76 °F (1961)
Min Temperature 25 °F 36 °F 11 °F (1977)
Degree Days  
Heating Degree Days 30 19  
Month to date heating degree days 306 330  
Since 1 July heating degree days 1983 2226  
Cooling Degree Days 0 0  
Month to date cooling degree days 0 0  
Year to date cooling degree days 6 1  
Moisture  
Dew Point 19 °F    
Average Humidity 49    
Maximum Humidity 70    
Minimum Humidity 27    
Precipitation  
Precipitation 0.00 in 0.18 in 1.99 in (2001)
Month to date precipitation 1.84 2.67  
Year to date precipitation 10.55 7.15  
Snow  
Snow 0.00 in 0.00 in T in (1996)
Month to date snowfall 0.0 0.4  
Since 1 July snowfall T 1.6  
Snow Depth 0.00 in    
Sea Level Pressure  
Sea Level Pressure 30.23 in    
Wind  
Wind Speed 7 mph (NNW)    
Max Wind Speed 18 mph    
Max Gust Speed 26 mph    
Visibility 10 miles    
Events      
T = Trace of Precipitation, MM = Missing Value Source: NWS Daily Summary

Daily Weather History Graph

Daily Weather History Graph

Search for Another Location

Airport:

Trip Planner

Search our weather history database for the weather conditions in past years. The results will help you decide how hot, cold, wet, or windy it might be!

Date:

Astronomy

Feb. 16, 2013 Rise Set
Actual Time 6:38 AM CST 5:39 PM CST
Civil Twilight 6:13 AM CST 6:05 PM CST
Nautical Twilight 5:43 AM CST 6:34 PM CST
Astronomical Twilight 5:14 AM CST 7:04 PM CST
Moon 10:10 AM CST (2/16) No Moon Set
Length of Visible Light 11h 52m
Length of Day
11h 01m
Waxing Crescent, 39% of the Moon is Illuminated
Feb 16
Waxing Crescent
Feb 17
First Quarter
Feb 25
Full
Mar 4
Last Quarter
Mar 11
New

Hourly Weather History & Observations

Time (CST) Temp. Windchill Dew Point Humidity Pressure Visibility Wind Dir Wind Speed Gust Speed Precip Events Conditions
12:53 AM 36.0 °F 32.1 °F 26.1 °F 67% 30.17 in 10.0 mi North 4.6 mph - N/A   Clear
1:53 AM 36.0 °F 30.3 °F 25.0 °F 64% 30.16 in 10.0 mi North 6.9 mph - N/A   Clear
2:53 AM 34.0 °F 26.0 °F 24.1 °F 67% 30.17 in 10.0 mi NNE 10.4 mph - N/A   Mostly Cloudy
3:53 AM 34.0 °F 28.0 °F 24.1 °F 67% 30.18 in 10.0 mi North 6.9 mph - N/A   Overcast
4:53 AM 32.0 °F 27.5 °F 21.9 °F 66% 30.19 in 10.0 mi North 4.6 mph - N/A   Clear
5:53 AM 30.0 °F 25.2 °F 21.0 °F 69% 30.19 in 10.0 mi North 4.6 mph - N/A   Clear
6:53 AM 30.0 °F 25.2 °F 19.9 °F 66% 30.21 in 10.0 mi North 4.6 mph - N/A   Clear
7:53 AM 33.1 °F 27.7 °F 21.0 °F 61% 30.23 in 10.0 mi NNW 5.8 mph - N/A   Clear
8:53 AM 37.0 °F 31.6 °F 19.9 °F 50% 30.23 in 10.0 mi North 6.9 mph - N/A   Clear
9:53 AM 41.0 °F 37.1 °F 18.0 °F 40% 30.23 in 10.0 mi North 5.8 mph - N/A   Clear
10:53 AM 42.1 °F 35.7 °F 15.1 °F 34% 30.23 in 10.0 mi NNW 11.5 mph 18.4 mph N/A   Partly Cloudy
11:53 AM 44.1 °F 37.4 °F 12.9 °F 28% 30.22 in 10.0 mi NW 13.8 mph 20.7 mph N/A   Mostly Cloudy
12:53 PM 41.0 °F 33.1 °F 14.0 °F 33% 30.21 in 10.0 mi North 15.0 mph 20.7 mph N/A   Overcast
1:53 PM 39.9 °F 32.9 °F 18.0 °F 41% 30.21 in 10.0 mi NNW 11.5 mph 21.9 mph N/A   Overcast
2:53 PM 41.0 °F 34.7 °F 18.0 °F 40% 30.21 in 10.0 mi North 10.4 mph 19.6 mph N/A   Overcast
3:53 PM 39.0 °F 30.6 °F 17.1 °F 41% 30.22 in 10.0 mi North 15.0 mph 20.7 mph N/A   Mostly Cloudy
4:53 PM 37.9 °F 32.7 °F 17.1 °F 43% 30.22 in 10.0 mi NNW 6.9 mph - N/A   Mostly Cloudy
5:53 PM 36.0 °F 30.3 °F 17.1 °F 46% 30.24 in 10.0 mi NNW 6.9 mph - N/A   Partly Cloudy
6:53 PM 34.0 °F 29.8 °F 17.1 °F 50% 30.26 in 10.0 mi NW 4.6 mph - N/A   Clear
7:53 PM 33.1 °F 28.7 °F 17.1 °F 52% 30.28 in 10.0 mi NNW 4.6 mph - N/A   Clear
8:53 PM 32.0 °F 28.7 °F 18.0 °F 56% 30.28 in 10.0 mi NW 3.5 mph - N/A   Clear
9:53 PM 28.9 °F - 18.0 °F 64% 30.28 in 10.0 mi Calm Calm - N/A   Clear
10:53 PM 28.9 °F - 19.0 °F 67% 30.27 in 10.0 mi Calm Calm - N/A   Clear
11:53 PM 27.0 °F - 19.9 °F 75% 30.28 in 10.0 mi Calm Calm - N/A   Clear